User: anonymous   Login
Location: Unspecified
(0.0000°N, 0.0000°E)
Time: 08:50:55
(UTC+00:00)
Language:

Snapshot - Orbit

View from above orbital plane
View from above orbital plane
View from above satellite
View from above satellite

Ground track
Ground track

The orbit data is extracted from the following two-line orbital elements,

1 01314U 65027A   16268.70722631  .00000002  00000-0 -19293-4 0  9991
2 01314  90.3007 277.3465 0030036 189.1576 303.5619 12.91747201172789
Epoch (UTC): 24 September 2016 16:58:24
Eccentricity: 0.0030036
inclination: 90.3007°
perigee height: 1271 km
apogee height: 1317 km
right ascension of ascending node: 277.3465°
argument of perigee: 189.1576°
revolutions per day: 12.91747201
mean anomaly at epoch: 303.5619°
orbit number at epoch: 17278

The dashed part of the orbit path shows where the satellite is in the earth's shadow,  

DLR